{"data":{"norad_id":66044,"epoch":"2026-05-25T03:28:44.707296Z","epoch_age_seconds":65629,"freshness":"FRESH","line1":"1 66044U 25233M   26145.14496189  .00000127  00000+0  17798-3 0  9999","line2":"2 66044  89.0024  45.4284 0002049  73.3565 286.7811 13.51006290 30122","mean_motion":13.5100629,"eccentricity":0.0002049,"inclination_deg":89.0024,"raan_deg":45.4284,"arg_perigee_deg":73.3565,"mean_anomaly_deg":286.7811,"bstar":0.00017798,"rev_number":3012,"period_min":106.58721655545,"perigee_km":1067.0326437589,"apogee_km":1070.0842995632,"semimajor_km":7446.6954716611,"source":"CELESTRAK","updated_at":"2026-05-25T13:38:05.922342Z"}}